STARLINK-35157, 65814

Orbit data source: Space-Track

STARLINK-35157, 65814 is a payload satellite owned by SpaceX/Seattle (US) in SSO that was launched on Fri, 26 Sep 2025 UTC via an FALCON 9 launch vehicle from the Air Force Western Test Range (AFWTR). Payload-class satellites include a variety of spacecraft equipped with specific instruments for various scientific and technological missions. These include communications satellites like Starlink; space stations such as the ISS; scientific satellites like the Hubble; Earth observation satellites from companies like Planet Labs, Umbra, and HawkEye 360; GPS; miniature CubeSats for education and research; and military/defense satellites.

Loading next visibility...
Identifier
65814, 2025-218Z
Orbit
SSO
Country
Flag of USUS
Related business
Manufacturer
SpaceX/Seattle
Mission
Operational Commercial Communications
Bus & Motor
STARLINK V2MO, Unknown motor
Mass
575 kg wet, ~530 kg dry
Launch date (UTC)
2025-09-26 (2 months ago)
Launch vehicle
FALCON 9
Launch site
Air Force Western Test Range (AFWTR)
Object type
Payload
Rocket body
Debris
Shape & HBR
Box + 2 Pan, 17.7 m
Radar Cross Section
36.964 m²

Expand to show TLE details & history
Last TLE update: 16 hours ago

TLE from 16 hours ago
0 STARLINK-35157
1 65814U 25218Z   25340.57261761  .00010626  00000-0  73938-3 0  9999
2 65814  97.6018 201.2514 0001941  87.2688 272.8761 15.05656037 10963
Epoch: 2025-12-06T13:44Z
TLE epoch observation values (Epoch: 2025-12-06T13:44:34.161Z)
Latitude
-0.00002°
Longitude
-80.48936°
Altitude
552.491 km
Speed
7.586 km/s
True Right ascension
13h 25m 00s
True Declination
0° 00' 00"
Sunlit
Object was in daylight at epoch
Visualization orbit readout
Latitude
Unknown
Longitude
Unknown
Altitude
Unknown
Speed
Unknown
Apparent Right ascension
Unknown
Apparent Declination
Unknown
Sunlit
N/A
Visualization observer readout
Local Sidereal Time
03:23:47
Azimuth
Unknown
Elevation
Unknown
Doppler factor
Unknown
Orbital elements
Apogee altitude
547.83 km
Perigee altitude
545.142 km
Semi-major axis
6,924.623 km
Eccentricity
0.00019
Inclination
97.6018°
RAAN
201.2514°
Arg. of periapsis
87.2688°
True anomaly
272.85389°
Mean anomaly
272.8761°
Eccentric anomaly
272.86499°
Mean motion
3.7666 °/min
Orbital period
95.58 mins
BSTAR
0.00073938
Loading maneuver chart data...
Computing Atmospheric mass density...
Loading historical data...
Loading historical data...
Loading historical data...
Loading historical data...
Loading historical data...
Loading historical data...
Loading historical data...

Documentation

Showing up to 5 results
|